Theta_e
319 319 321 320 321 326 339 350 356 357 354 353 353 354 351 351 349 343 339 345 346 346 344 345 345 345 347 347 348 348 347 344 345 345 346 345 345 342 344 346 347 346 343 341
318 321 320 321 322 325 325 340 355 353 351 352 352 355 353 351 350 345 337 345 346 345 345 345 345 346 346 344 346 346 345 343 346 344 347 344 344 344 345 347 347 346 344 343
319 321 321 323 325 337 333 351 354 355 347 350 353 353 355 351 349 346 344 343 345 346 345 344 344 345 345 344 345 347 343 343 346 346 346 346 346 345 346 346 348 347 346 347
317 317 319 319 322 326 332 350 346 346 349 358 351 354 352 352 350 346 343 341 343 345 344 343 344 345 345 345 347 347 342 344 347 345 345 346 347 347 347 347 347 347 348 348
318 317 317 318 318 336 347 347 347 350 355 355 356 355 350 351 352 348 343 342 340 345 345 344 344 345 346 346 347 348 343 345 346 346 344 345 346 344 345 347 346 348 347 349
318 318 315 323 339 344 347 347 351 350 352 356 351 355 356 354 350 347 341 342 341 344 344 344 344 345 346 347 347 347 345 345 344 344 344 345 345 345 346 346 348 345 347 346
318 320 327 343 347 345 335 336 349 350 355 356 351 356 352 347 344 344 343 341 341 341 344 344 344 344 346 347 348 347 346 346 345 342 343 345 346 346 346 347 347 347 346 347
319 320 316 324 344 344 337 336 345 353 354 356 352 357 348 343 342 342 343 340 342 339 344 345 345 345 345 347 348 347 347 346 346 345 342 345 346 346 346 346 345 347 347 347
319 321 320 321 331 336 341 341 337 349 349 353 353 349 347 345 346 347 342 341 344 341 346 346 346 346 345 346 348 348 347 347 346 346 346 343 346 346 348 348 347 347 347 348
322 322 322 322 324 336 331 330 339 338 352 352 355 347 345 352 356 350 347 341 342 343 344 345 346 347 347 345 347 349 346 347 346 345 348 347 345 346 347 348 347 348 349 349
321 321 323 322 323 322 321 323 323 329 337 349 356 350 343 344 353 350 345 342 341 343 341 342 344 348 349 348 349 350 350 348 346 347 347 348 345 347 348 346 346 346 348 349
321 318 322 325 322 320 321 323 321 324 327 336 343 335 348 349 349 347 345 340 340 344 342 342 342 344 347 350 351 351 351 350 347 346 349 348 347 349 349 350 350 349 351 351
323 319 322 322 324 323 324 330 328 315 315 322 323 324 344 344 343 343 342 343 343 342 341 341 343 343 344 350 353 352 352 351 349 347 349 348 351 350 351 351 351 350 349 350
322 317 320 323 326 325 335 342 342 320 318 318 321 323 349 345 345 343 343 343 344 344 342 339 341 343 346 347 353 352 352 351 350 348 349 351 351 350 349 348 349 350 350 350
321 326 322 321 328 336 338 340 344 350 350 319 322 335 349 344 341 340 339 341 346 346 346 342 341 344 347 349 352 352 352 352 350 348 349 350 349 349 351 352 352 350 350 350
321 327 328 334 334 335 335 335 341 346 345 348 346 348 345 340 336 339 342 343 346 349 346 344 344 345 349 350 351 351 351 351 350 349 348 350 349 348 351 351 350 350 351 351
323 324 327 330 331 334 335 334 335 346 341 342 345 340 338 341 343 341 340 342 344 347 344 343 343 342 345 349 350 347 347 348 348 347 345 346 349 347 345 346 347 347 348 349
322 323 324 327 330 333 332 332 333 343 343 341 338 337 337 342 344 341 339 337 336 338 344 342 342 343 343 347 347 346 346 346 346 345 343 344 345 346 343 343 343 344 346 346
318 322 327 328 330 334 335 333 333 336 341 338 348 346 346 343 340 340 336 334 334 333 333 339 343 343 344 345 345 345 344 344 344 345 344 345 345 345 344 343 343 343 342 344
321 318 323 325 330 336 331 331 330 333 338 336 341 345 344 339 339 340 334 331 330 329 330 333 342 343 342 340 337 342 343 343 343 343 343 343 343 343 344 344 344 343 342 342
323 321 327 329 333 329 327 328 327 333 333 337 338 338 340 339 334 334 328 328 327 327 329 332 335 332 335 339 341 341 342 343 343 342 341 340 342 342 342 342 342 341 340 340
322 323 323 326 330 331 327 327 330 327 331 332 332 339 339 334 332 329 326 327 327 326 328 329 329 330 333 338 341 338 340 340 340 341 339 342 342 341 340 340 339 339 338 334
323 322 325 324 325 324 326 326 328 327 332 332 333 338 336 333 330 326 324 325 325 325 324 325 325 326 329 331 333 332 332 335 338 340 338 338 338 338 338 337 337 334 330 326
322 320 323 324 324 327 327 326 326 324 329 331 334 335 332 332 330 325 323 323 323 323 323 324 325 324 324 327 329 329 330 332 334 333 333 333 336 336 336 335 334 332 330 327
322 322 323 325 325 326 323 322 323 331 334 335 334 333 332 329 327 325 322 322 322 323 322 321 321 322 322 323 324 324 326 328 328 327 326 326 326 326 327 325 321 322 321 323
320 321 324 324 321 321 321 320 323 329 334 333 333 332 331 328 325 324 321 322 322 322 322 321 320 320 320 321 321 321 321 325 328 326 325 325 324 321 321 323 321 321 321 317
Wind_Speed
2 4 5 6 4 4 3 3 3 4 8 3 2 2 4 8 4 8 11 15 15 18 20 23 24 26 30 30 29 26 25 21 18 15 17 19 18 14 14 11 9 10 7 6
5 2 6 4 4 4 2 0 5 6 5 3 1 4 2 3 4 1 10 17 17 15 14 18 22 24 31 34 31 26 28 23 17 18 17 19 17 17 14 11 10 9 8 5
4 5 4 4 3 2 4 4 8 6 3 4 3 1 4 4 2 3 2 18 17 19 17 15 21 25 28 30 32 27 27 26 19 18 15 19 17 17 14 12 11 8 7 5
4 6 6 4 5 7 6 4 8 11 10 3 2 3 6 9 6 5 6 7 16 15 17 16 21 22 27 32 32 28 29 26 22 20 18 19 18 18 18 17 12 10 8 7
7 4 4 5 7 7 2 8 7 5 5 3 2 1 5 13 14 11 8 8 11 17 17 19 25 28 29 31 33 32 29 27 23 21 20 20 19 20 20 17 13 12 10 9
8 4 5 1 1 9 18 17 12 6 3 2 5 6 3 6 22 15 5 8 9 17 16 20 27 25 24 27 27 34 30 28 24 22 20 22 20 19 18 17 16 15 13 12
5 3 3 9 13 3 6 5 3 5 3 3 3 4 7 6 10 20 13 11 11 17 18 15 16 22 22 26 29 33 32 29 25 24 23 22 21 21 18 19 19 16 15 15
1 5 7 3 9 10 9 5 5 6 5 4 3 3 5 4 4 18 19 17 14 17 18 18 22 25 26 28 29 31 34 31 27 24 25 23 22 21 18 18 21 19 17 17
1 5 5 5 6 9 6 4 4 6 3 2 2 5 9 12 15 11 21 14 19 19 20 19 23 26 28 29 30 34 33 31 28 26 24 24 22 21 17 14 19 20 17 16
2 4 3 5 4 4 6 7 3 2 5 4 2 0 8 7 8 7 17 22 20 20 20 19 21 26 28 31 32 33 34 34 31 27 24 23 24 21 17 16 13 16 15 15
2 2 7 3 3 6 3 1 5 4 4 4 4 5 11 4 8 7 9 14 17 20 19 17 21 27 30 28 30 31 32 32 30 30 28 25 25 21 18 16 17 17 15 15
4 4 3 6 5 5 1 4 3 4 4 2 3 5 6 11 8 7 4 6 8 13 17 15 21 22 23 27 28 31 32 32 31 30 28 26 25 22 20 16 15 17 16 13
2 2 3 9 6 6 6 5 3 3 3 4 5 4 5 11 11 8 6 5 4 3 8 13 13 19 22 25 26 29 32 35 32 28 28 26 25 23 22 18 15 16 17 15
5 2 4 5 4 2 4 5 4 3 3 2 5 4 6 6 9 6 5 4 3 4 5 5 9 15 23 27 29 32 32 34 33 28 28 29 28 26 22 19 17 14 14 15
4 1 2 4 5 8 3 4 6 4 1 5 4 2 4 3 6 4 3 3 2 5 6 7 9 10 19 24 26 26 29 33 30 27 28 29 28 25 23 20 17 15 13 13
4 1 2 1 5 10 5 10 4 5 4 1 3 4 3 3 4 6 6 6 4 5 7 6 5 7 20 26 29 31 34 32 29 25 27 27 25 23 22 18 16 13 14 14
3 2 3 3 3 4 5 5 5 0 4 2 2 2 1 6 9 5 6 6 6 1 6 6 9 12 6 10 19 24 29 33 25 17 8 10 21 23 16 13 12 10 9 11
4 3 2 2 4 2 3 1 2 3 5 6 6 3 5 7 7 7 7 3 5 6 6 9 11 15 14 11 17 22 22 19 19 16 20 18 18 19 19 14 12 12 13 11
5 4 3 3 2 4 5 2 1 4 1 2 4 9 6 9 6 5 7 6 6 3 4 6 13 19 16 12 13 10 12 9 14 22 21 16 12 7 8 10 16 12 12 12
4 5 4 2 3 5 6 1 3 4 4 3 2 4 7 4 3 2 4 6 6 6 7 9 9 20 22 15 2 7 9 8 9 8 9 7 5 7 10 16 14 12 11 13
3 4 3 3 2 5 5 4 3 1 6 5 2 4 2 2 1 5 1 5 7 8 11 12 14 17 13 14 19 19 18 14 9 6 1 5 3 6 8 8 6 7 10 11
3 3 2 1 1 4 1 2 6 6 1 4 4 7 9 10 8 6 2 4 5 8 11 12 15 14 11 12 15 15 17 15 13 12 9 8 8 6 6 5 6 7 9 12
1 5 4 7 4 4 3 4 1 2 2 3 4 7 11 6 6 4 3 4 6 9 11 12 13 14 12 11 14 16 10 8 9 14 16 14 10 9 8 8 9 10 10 12
3 3 2 1 3 2 4 6 0 3 2 5 7 9 8 7 6 7 5 4 7 10 11 13 16 16 14 11 13 15 12 11 14 15 14 13 13 12 11 10 11 11 10 11
4 5 4 3 3 1 3 4 3 7 8 7 8 9 10 9 7 6 6 6 9 11 11 12 15 15 12 11 11 9 10 10 13 13 12 13 13 13 12 11 9 8 7 7
5 6 5 5 7 5 4 3 2 8 7 6 10 7 6 7 8 9 7 15 16 14 12 11 10 13 12 10 10 9 8 7 9 9 7 6 6 7 8 9 10 8 8 6
Wind_Direction
126 98 190 217 209 165 140 114 87 6 12 358 81 137 144 230 251 165 151 161 170 179 182 180 177 184 189 188 183 180 178 167 161 167 173 188 193 196 188 193 183 177 166 138
26 232 219 188 206 237 103 7 126 63 311 347 61 216 107 210 251 352 151 169 173 170 174 170 176 182 187 187 189 189 183 172 167 173 180 186 195 194 195 194 195 185 164 163
154 236 77 137 132 61 0 263 164 131 133 227 210 257 220 233 286 240 180 179 170 173 173 177 178 184 185 191 189 186 181 174 169 167 169 179 184 196 197 192 187 175 170 185
244 258 232 178 191 158 224 174 134 137 115 263 24 272 207 217 216 209 198 172 177 186 176 172 179 181 188 194 190 186 183 182 177 174 170 176 189 188 201 194 187 185 191 194
260 270 205 188 218 143 202 160 148 114 71 189 176 24 267 178 231 228 203 201 179 179 180 180 182 185 189 193 195 192 188 185 186 185 181 181 187 193 201 198 205 201 205 199
242 247 169 157 185 133 132 92 67 57 47 273 205 184 266 192 208 222 172 187 177 180 186 190 184 179 180 191 189 192 191 190 192 197 192 190 183 186 190 205 213 212 211 208
314 265 90 123 78 27 80 80 101 49 14 258 328 169 262 224 220 210 191 187 185 182 181 178 177 175 177 184 189 193 194 196 196 197 198 194 192 191 199 205 216 222 218 217
314 342 167 180 159 181 186 163 152 158 182 230 85 263 265 181 215 204 211 192 173 176 185 181 181 177 180 184 190 191 198 201 200 198 196 198 195 203 208 216 220 223 226 225
310 274 297 208 160 148 212 198 168 99 2 123 282 285 277 240 234 211 216 196 177 177 181 184 182 180 181 184 190 196 201 206 205 206 203 200 204 201 211 219 217 226 230 231
208 305 305 300 92 313 177 158 98 33 151 152 246 89 256 229 211 227 197 199 186 172 175 182 181 183 186 187 190 196 207 207 207 208 209 207 202 206 211 219 221 212 226 237
105 118 293 348 35 182 312 223 56 121 140 156 168 240 231 191 201 193 207 201 184 174 167 175 181 186 187 183 187 191 201 206 209 211 209 214 208 207 212 215 215 219 226 242
341 142 291 249 295 322 210 119 131 140 217 201 154 274 15 84 84 88 66 168 189 185 165 166 172 180 178 181 184 191 200 206 209 211 213 214 215 211 207 210 220 215 221 232
294 348 15 346 8 6 51 353 299 104 58 190 138 264 57 83 62 59 69 89 90 124 166 152 154 174 175 181 183 189 199 205 208 210 213 215 216 215 216 219 217 215 220 226
99 106 154 174 212 235 10 342 334 106 112 203 209 270 60 74 88 45 40 39 105 143 173 164 158 173 177 182 184 191 198 206 206 203 209 214 216 219 221 223 228 226 223 226
77 149 296 235 236 113 67 8 19 73 68 184 299 171 55 54 109 69 41 42 45 178 188 184 172 173 178 177 183 187 195 202 203 198 205 216 221 224 225 225 227 229 226 228
4 237 302 148 21 104 84 18 8 64 2 168 28 82 95 66 79 61 19 21 348 180 140 118 101 173 178 178 181 183 190 192 190 193 209 214 218 225 217 208 211 214 219 215
90 75 39 273 318 273 53 339 340 173 23 269 202 298 61 73 69 51 50 22 345 306 123 121 136 129 115 192 183 170 169 174 167 170 179 221 222 218 208 205 214 218 211 203
141 115 104 248 5 205 297 57 281 54 49 59 79 87 97 91 69 45 41 62 41 29 84 110 107 89 98 117 149 155 158 153 161 193 210 237 224 219 211 229 229 213 218 216
20 126 71 113 51 317 305 288 189 200 256 270 168 140 106 115 94 35 24 37 43 33 60 88 113 118 103 85 119 146 162 155 206 202 213 215 218 200 216 228 226 206 201 201
43 50 112 116 152 205 228 263 205 191 354 270 235 175 160 175 62 330 5 4 46 40 43 67 129 139 128 115 81 221 156 165 186 192 189 173 211 193 205 216 209 207 207 206
6 4 122 156 168 271 254 230 164 160 226 153 208 97 98 98 160 128 109 70 45 36 37 73 102 81 119 164 184 173 157 160 170 162 129 322 257 213 221 217 193 200 202 200
169 134 214 101 107 247 175 177 171 219 335 144 157 112 79 114 106 97 58 59 71 73 67 73 75 81 111 156 163 152 160 164 185 169 202 211 177 164 182 179 172 177 170 160
249 182 185 176 224 264 284 256 296 127 184 95 99 116 134 125 112 130 98 37 55 65 71 81 82 84 87 106 137 136 136 158 166 155 142 152 160 170 166 160 151 153 162 160
240 168 160 93 261 263 307 284 274 23 174 144 127 133 139 132 134 120 114 111 98 91 80 91 94 84 75 89 112 114 109 123 139 133 138 142 151 155 163 168 161 167 175 183
202 144 145 271 249 259 310 262 164 85 76 86 106 132 139 136 140 139 139 143 134 121 110 105 103 98 93 98 97 100 108 123 121 119 122 119 122 129 136 140 136 150 158 184
191 171 163 212 195 157 209 161 185 112 112 118 115 111 122 142 134 131 156 154 149 142 137 119 122 120 118 115 107 103 105 124 130 123 117 115 126 133 135 136 127 118 107 77